Terminal Aerodrome Forecast
Issued by NWS Shreveport, LA

Home | Current Version | Previous Version | Text Only | Print | Product List | Glossary On
Versions: 1 2 3 4 5 6 7 8 9 10 11 12 13 14 15 16 17 18 19 20 21 22 23 24 25 26 27
212
FTUS44 KSHV 220113 AAA
TAFTYR
TAF AMD
KTYR 220113Z 2201/2224 VRB03KT P6SM SKC
      TEMPO 2210/2213 5SM BR BKN020=

USA.gov is the U.S. government's official web portal to all federal, state and local government web resources and services.